Wetbulb
48.10 48.58 49.13 49.53 49.22 45.26 38.42 32.74 29.61 39.17 39.04 30.48 27.60 26.72 28.93 32.89 31.41 34.12 32.13 31.18 28.70 26.80 27.12 24.27 23.61 22.95 26.53 32.07 31.08 26.25 29.24 25.89 20.28 23.70 29.98 33.29 32.09 28.81 28.57 22.40 22.02 28.21 27.30 25.34
48.37 48.83 49.29 49.26 47.18 43.82 35.35 30.00 29.17 37.77 38.03 25.88 25.96 29.66 29.34 31.40 30.59 31.07 30.67 29.00 31.04 31.22 27.59 23.87 25.91 26.64 31.67 32.93 30.84 28.86 30.10 24.58 19.22 21.20 25.95 29.20 26.35 28.76 31.84 31.97 31.48 26.25 23.75 25.75
48.37 48.96 49.30 48.18 45.92 42.89 35.05 30.21 25.65 30.88 31.95 29.38 27.90 26.88 27.31 27.43 32.36 31.37 30.77 30.25 31.31 28.39 27.82 29.55 26.08 27.67 31.17 33.48 32.43 35.01 32.40 25.94 21.52 16.52 20.63 23.73 21.31 23.69 25.77 27.50 21.65 22.19 20.71 22.02
48.70 48.98 48.58 47.71 46.02 43.94 36.60 28.96 26.42 28.13 25.13 27.95 28.72 29.18 28.24 26.66 26.88 31.17 31.82 29.54 29.06 26.93 25.11 27.13 26.44 29.29 29.95 31.63 33.89 31.77 29.46 23.73 25.40 24.93 25.61 25.08 22.98 21.83 22.65 21.70 22.33 18.40 21.53 22.69
48.73 48.60 48.04 46.91 45.59 43.13 33.08 29.42 28.41 29.59 27.99 28.56 28.19 28.71 27.15 26.32 27.76 28.35 28.37 27.79 29.51 28.14 26.25 27.31 25.59 28.26 28.16 27.24 30.75 29.44 31.03 25.04 27.46 24.51 27.59 26.33 21.73 23.80 22.55 21.52 22.16 22.09 22.68 21.68
48.53 48.55 47.72 46.41 45.21 41.31 33.36 31.43 31.98 33.02 28.25 28.15 27.99 27.50 27.83 28.08 29.37 30.98 31.81 30.67 28.85 28.11 29.74 32.09 32.53 33.33 33.09 32.02 29.22 27.47 28.48 27.26 26.10 20.75 24.68 25.57 17.66 20.98 23.16 21.59 23.10 23.04 18.82 23.65
48.16 48.34 46.97 47.15 44.58 40.70 35.75 32.68 33.07 31.59 26.76 28.56 28.32 28.88 29.03 29.10 29.70 28.43 31.79 31.83 28.93 33.20 35.27 34.13 33.93 33.36 32.38 32.56 31.63 31.23 27.79 27.44 23.47 20.10 23.16 11.19 21.55 27.47 27.57 24.65 22.39 25.27 26.04 27.07
47.77 47.94 47.36 46.25 45.25 43.89 37.38 35.16 34.18 31.78 27.42 28.44 30.24 29.64 29.52 30.10 30.55 30.04 30.28 32.44 34.74 35.03 32.39 28.49 24.85 24.34 25.83 27.71 31.15 29.46 30.36 26.50 20.95 17.88 16.64 20.55 21.40 23.84 23.78 22.70 19.47 26.46 26.17 27.21
47.19 47.50 47.48 46.59 46.20 43.31 37.40 35.31 35.37 34.48 30.70 29.78 30.16 29.44 29.80 27.44 28.02 29.35 30.87 34.23 35.13 33.27 29.74 26.68 19.59 17.25 20.98 20.55 24.34 30.80 29.99 29.00 23.19 19.44 12.51 9.86 19.95 26.65 29.81 30.61 15.86 27.47 28.53 27.34
46.92 47.10 47.27 46.58 45.77 44.16 39.09 36.48 35.92 36.04 31.41 32.70 32.12 30.41 29.53 30.65 29.39 26.66 28.59 30.51 30.93 33.31 26.86 22.49 21.03 19.52 24.07 18.31 18.27 19.85 22.43 23.13 18.95 18.25 14.83 17.11 26.10 29.01 30.36 14.40 16.64 29.32 29.68 29.06
46.59 46.66 46.65 46.51 45.91 44.92 39.88 37.22 37.65 37.62 33.40 33.09 35.04 34.98 31.78 31.93 30.86 28.17 31.32 28.79 30.22 28.37 24.61 23.83 22.05 21.52 22.18 21.72 22.64 20.67 19.57 18.98 17.54 18.51 13.68 10.71 30.62 28.28 20.89 26.97 31.49 30.71 30.68 30.82
46.04 46.27 46.27 45.85 45.63 44.99 41.41 37.78 37.65 37.77 37.07 35.29 36.36 37.36 37.77 35.79 35.45 33.07 30.81 29.90 27.97 27.70 26.02 26.18 26.96 22.96 25.05 22.53 17.69 26.99 18.73 23.55 20.39 21.01 20.71 31.04 32.10 29.74 33.24 33.09 30.75 30.68 31.07 31.43
45.69 45.74 45.60 45.72 44.89 44.26 41.06 36.78 35.46 37.33 35.49 36.12 35.74 34.88 39.23 39.48 37.39 38.37 32.16 32.74 31.56 30.53 30.43 29.35 27.42 23.37 25.98 20.45 22.30 24.03 27.63 29.97 25.28 24.11 28.26 29.22 31.47 33.07 33.88 33.52 32.25 32.67 32.90 32.54
45.36 45.43 45.14 44.74 44.35 43.87 41.19 37.29 36.04 35.29 33.18 31.92 33.30 38.25 37.18 39.87 38.87 37.48 37.13 35.88 33.64 33.49 32.88 29.77 28.08 26.16 29.99 25.66 26.62 25.94 27.66 29.02 26.37 26.11 29.23 31.06 32.49 33.07 33.65 34.10 33.84 33.06 33.49 32.84
45.08 45.53 44.91 44.31 42.84 40.98 37.92 36.51 36.77 36.81 35.91 32.08 32.77 35.92 37.91 37.93 38.86 37.47 36.68 35.51 33.35 31.75 31.87 30.17 27.15 29.55 29.53 28.86 28.82 27.14 29.56 27.82 25.89 24.58 30.37 30.63 31.55 33.82 34.88 33.86 33.27 33.12 32.40 32.11
44.42 44.41 44.82 44.74 42.39 37.92 35.51 32.88 35.97 38.91 37.04 33.56 30.37 34.21 34.98 36.62 37.95 36.30 34.75 34.40 31.33 30.51 30.61 27.95 29.82 30.24 30.08 26.63 24.33 29.99 30.71 31.80 32.88 31.37 34.09 33.42 34.21 34.47 34.69 34.67 34.70 34.31 33.11 33.09
44.42 44.22 43.40 42.19 40.80 35.86 31.30 31.95 35.27 40.72 37.64 33.98 29.21 29.97 34.54 34.31 34.67 34.03 34.63 33.22 32.04 31.95 29.63 29.76 29.47 29.84 31.36 28.29 24.41 30.18 31.93 32.84 33.11 34.34 34.50 32.59 33.42 32.69 34.29 35.12 35.43 35.48 34.12 33.72
44.57 44.13 43.43 42.89 41.77 38.83 34.17 36.62 39.12 37.84 34.91 33.82 27.46 28.85 31.81 34.14 31.63 32.77 32.23 32.77 32.24 31.27 29.40 29.35 29.05 29.93 29.12 25.23 29.66 30.57 32.44 33.18 33.75 33.79 34.14 33.81 34.36 35.25 35.60 35.55 35.82 34.70 33.30 33.11
43.83 41.56 40.12 36.85 34.05 30.96 33.62 39.71 35.98 35.27 34.78 30.93 28.77 26.55 25.57 32.87 31.10 30.92 31.82 31.05 31.12 31.27 29.55 29.03 28.76 26.85 24.08 29.19 30.50 31.54 33.27 33.24 33.57 34.35 34.80 35.02 34.35 34.52 35.26 35.44 35.30 35.00 34.09 33.63
40.39 35.89 30.47 25.57 34.09 40.13 37.31 29.84 26.86 27.04 26.68 32.54 29.61 27.59 28.49 31.82 30.52 29.56 28.74 29.56 27.74 27.71 28.73 30.07 28.64 28.39 30.17 31.86 33.31 34.34 34.72 35.17 34.92 33.15 32.74 33.77 33.97 34.24 34.48 34.31 35.11 35.13 34.82 34.17
31.29 30.03 30.59 35.13 38.78 32.57 26.68 21.08 24.00 24.96 24.74 29.02 29.46 28.84 28.08 31.83 30.45 28.79 27.96 27.68 27.23 23.97 27.85 27.29 26.19 26.66 30.42 33.43 33.07 33.96 34.70 35.14 35.73 36.25 36.13 35.88 35.23 34.94 34.92 35.21 35.32 35.68 35.91 34.32
32.99 35.41 36.08 34.31 29.93 24.90 21.33 18.55 24.50 25.10 24.38 27.87 28.52 29.29 30.08 30.03 31.63 31.29 28.01 27.05 27.04 22.77 28.47 25.81 23.17 28.98 32.61 32.65 33.44 34.25 34.64 34.84 35.33 36.39 36.28 36.50 36.07 36.01 35.53 35.39 35.73 35.62 36.16 35.05
34.68 31.00 29.42 28.29 24.36 18.44 20.00 14.21 21.48 22.42 26.83 28.10 28.08 28.00 29.31 29.38 30.93 28.12 27.85 24.22 23.24 27.21 23.78 23.50 26.71 30.12 31.87 33.06 33.72 34.05 34.84 35.03 35.57 36.09 36.82 36.63 36.39 36.05 36.10 35.44 35.51 35.48 36.23 35.46
27.28 24.72 18.23 22.04 19.55 21.92 23.42 24.50 25.65 28.45 28.97 27.71 29.33 27.61 30.35 28.33 28.48 27.21 23.51 25.89 26.12 20.34 19.32 22.21 29.07 31.06 33.45 34.00 33.88 33.78 34.38 34.81 35.09 35.47 35.66 36.06 36.35 35.80 35.95 35.84 35.55 32.90 35.50 34.78
28.92 27.78 19.13 21.64 26.90 28.21 27.83 27.95 28.49 28.72 29.86 30.13 29.83 29.09 30.27 28.04 26.16 26.85 25.29 21.37 19.08 22.37 22.91 27.24 31.14 32.64 33.17 33.66 33.03 33.92 34.13 34.61 34.69 35.15 35.12 35.58 35.91 35.61 36.26 36.47 37.36 36.90 35.20 34.46
30.34 29.13 26.99 27.81 27.22 27.24 27.57 27.27 28.27 30.33 29.93 30.73 31.09 27.80 25.30 25.23 26.53 23.78 21.20 21.36 20.34 25.24 27.86 30.85 31.51 32.01 33.13 34.23 33.71 34.02 34.67 34.59 34.92 34.82 34.62 34.94 35.46 35.61 36.62 36.53 36.92 32.76 32.73 29.22
29.23 28.17 30.16 29.22 28.63 29.71 29.72 29.50 29.54 31.36 30.75 29.13 28.41 23.51 24.38 26.57 23.79 23.18 26.20 23.89 28.03 29.79 29.84 31.15 31.52 33.52 34.36 34.83 34.50 34.17 34.10 34.02 34.51 34.56 34.78 35.36 35.67 36.00 35.76 35.93 37.41 36.33 35.67 31.02
MSLP
1021.47 1021.18 1020.88 1020.47 1020.38 1020.46 1020.62 1022.14 1022.69 1021.87 1021.04 1022.51 1024.62 1025.54 1025.67 1025.40 1025.28 1025.13 1025.13 1025.12 1025.46 1025.39 1025.12 1024.64 1024.45 1024.06 1023.72 1023.09 1023.02 1021.69 1021.19 1020.08 1018.54 1017.87 1017.02 1016.27 1015.60 1015.05 1015.02 1015.04 1014.31 1013.27 1013.90 1016.42
1021.54 1021.19 1020.78 1020.44 1020.33 1020.46 1021.35 1023.28 1023.74 1022.55 1022.17 1024.70 1025.89 1026.04 1025.96 1025.77 1025.58 1025.44 1025.30 1025.33 1025.62 1025.62 1025.23 1025.03 1024.44 1024.06 1023.52 1023.33 1022.92 1022.20 1021.29 1020.10 1018.70 1018.14 1017.56 1017.89 1017.88 1017.43 1016.56 1015.83 1014.94 1015.15 1015.92 1017.25
1021.53 1021.04 1020.67 1020.45 1020.56 1020.69 1021.68 1024.03 1024.95 1025.02 1025.23 1026.70 1026.36 1026.40 1026.42 1026.06 1025.84 1025.66 1025.71 1025.66 1025.70 1025.61 1025.12 1025.03 1024.47 1023.96 1023.41 1023.20 1022.95 1022.53 1022.15 1021.12 1021.11 1021.45 1021.65 1021.06 1020.18 1019.44 1018.68 1017.57 1018.15 1018.78 1019.49 1019.38
1021.56 1021.15 1020.79 1020.55 1020.71 1020.80 1021.83 1024.90 1026.77 1026.98 1027.22 1027.23 1027.07 1026.75 1026.86 1026.50 1026.18 1025.95 1025.76 1025.58 1025.78 1025.75 1025.28 1024.88 1024.51 1024.09 1023.47 1023.07 1022.86 1022.84 1022.77 1022.52 1021.94 1022.52 1022.54 1021.62 1021.24 1021.70 1021.91 1021.42 1022.20 1021.99 1021.82 1021.02
1021.79 1021.45 1021.09 1020.84 1020.82 1020.95 1022.96 1025.22 1026.29 1027.22 1027.59 1027.67 1027.28 1027.20 1027.19 1026.96 1026.70 1026.52 1026.05 1025.95 1025.62 1025.55 1025.42 1025.41 1025.16 1024.92 1024.62 1024.67 1023.18 1022.93 1022.87 1022.45 1022.35 1021.84 1021.55 1021.28 1021.51 1023.43 1024.16 1024.38 1024.16 1023.77 1023.42 1022.77
1022.12 1021.76 1021.39 1021.00 1020.92 1021.12 1023.72 1025.60 1025.93 1026.03 1028.05 1027.88 1027.58 1027.82 1027.48 1027.02 1026.99 1026.31 1026.10 1025.96 1025.77 1025.28 1025.24 1025.30 1025.31 1025.32 1025.43 1025.07 1024.18 1023.38 1022.87 1022.57 1022.23 1021.77 1021.62 1021.12 1021.32 1025.37 1025.71 1026.27 1025.88 1025.58 1024.45 1024.86
1022.58 1022.15 1021.79 1021.42 1021.30 1021.30 1023.16 1025.05 1025.54 1026.53 1028.35 1027.92 1027.87 1027.68 1027.42 1026.96 1026.88 1026.66 1025.97 1025.79 1025.71 1024.94 1025.07 1024.99 1025.17 1025.09 1025.02 1024.73 1024.18 1023.79 1023.16 1022.68 1022.79 1022.85 1022.24 1023.92 1027.84 1027.52 1027.14 1027.06 1027.07 1026.29 1025.90 1025.11
1023.12 1022.77 1022.59 1022.32 1022.11 1022.29 1023.46 1024.92 1025.46 1026.65 1028.17 1028.14 1027.62 1027.40 1027.29 1026.88 1026.64 1026.57 1026.29 1025.71 1025.40 1025.15 1024.93 1024.91 1025.25 1025.43 1025.24 1025.16 1024.54 1023.98 1023.33 1023.17 1023.86 1024.34 1025.07 1027.08 1026.97 1027.34 1027.72 1027.54 1027.81 1026.97 1026.19 1025.45
1023.67 1023.49 1023.37 1023.30 1023.20 1023.39 1023.94 1025.50 1025.72 1026.39 1027.66 1028.35 1028.07 1027.56 1027.48 1027.42 1027.05 1026.58 1026.15 1025.75 1025.42 1025.21 1025.47 1025.76 1026.62 1027.16 1027.29 1026.76 1026.05 1025.30 1024.75 1024.35 1024.77 1025.67 1026.73 1028.93 1030.23 1028.50 1026.83 1026.80 1027.44 1027.16 1026.74 1026.04
1024.22 1024.14 1024.00 1023.93 1023.88 1023.83 1024.25 1026.10 1026.00 1026.31 1027.72 1028.26 1028.06 1027.75 1027.96 1027.83 1027.65 1027.64 1027.21 1026.74 1026.11 1025.86 1026.58 1027.26 1027.86 1028.49 1028.80 1028.82 1028.65 1028.12 1027.13 1026.83 1026.91 1027.58 1028.63 1031.04 1030.59 1029.86 1027.33 1026.91 1030.14 1028.39 1027.68 1027.11
1024.70 1024.64 1024.54 1024.54 1024.50 1024.41 1024.63 1026.72 1026.43 1026.37 1027.61 1028.32 1028.06 1027.97 1027.94 1027.85 1027.96 1027.85 1027.43 1027.55 1027.35 1027.37 1028.00 1028.71 1029.48 1029.73 1030.14 1030.13 1030.28 1030.02 1029.34 1029.10 1029.36 1029.58 1030.29 1031.46 1031.18 1030.39 1029.62 1030.82 1029.96 1029.05 1028.05 1027.40
1025.27 1025.22 1025.06 1024.97 1024.99 1025.00 1025.05 1026.55 1027.12 1027.07 1027.51 1028.54 1028.35 1027.99 1028.02 1028.21 1028.16 1028.13 1028.01 1028.48 1028.78 1029.14 1029.31 1029.72 1029.85 1030.50 1030.68 1030.53 1030.69 1030.60 1030.68 1031.21 1031.02 1031.25 1032.04 1032.15 1031.78 1031.50 1030.97 1030.59 1030.04 1029.21 1028.30 1027.42
1025.81 1025.80 1025.76 1025.55 1025.56 1025.56 1025.71 1027.16 1027.84 1027.62 1028.42 1028.63 1028.29 1028.33 1028.11 1027.83 1028.13 1028.10 1028.12 1028.41 1028.96 1029.18 1029.64 1029.85 1030.53 1031.03 1031.49 1031.23 1031.62 1031.39 1031.43 1031.37 1031.53 1031.79 1032.12 1031.96 1031.63 1031.20 1030.77 1030.31 1029.97 1029.38 1028.72 1028.09
1026.25 1026.25 1026.30 1026.21 1026.17 1026.22 1026.22 1027.80 1028.61 1028.57 1029.35 1029.66 1029.67 1028.78 1028.68 1028.53 1028.20 1028.05 1028.28 1028.67 1029.09 1029.17 1029.30 1029.94 1030.59 1030.90 1031.51 1031.84 1032.02 1031.78 1032.12 1031.73 1031.86 1031.93 1031.77 1031.50 1031.20 1030.99 1030.84 1030.40 1029.98 1029.36 1028.88 1028.46
1026.69 1026.67 1026.80 1026.83 1026.96 1027.25 1027.57 1028.33 1029.06 1028.86 1029.24 1030.02 1029.99 1029.65 1029.48 1029.27 1028.76 1028.77 1028.75 1028.87 1029.34 1029.78 1029.99 1030.83 1031.46 1031.67 1031.72 1032.04 1031.96 1032.03 1032.29 1032.17 1032.01 1031.90 1031.77 1031.70 1031.04 1030.71 1030.63 1030.44 1030.19 1029.83 1029.31 1028.75
1027.05 1027.06 1027.21 1027.31 1027.45 1027.59 1028.03 1028.99 1029.30 1029.17 1029.15 1029.64 1030.51 1030.62 1030.17 1029.65 1029.42 1029.64 1029.81 1030.04 1030.37 1030.64 1031.05 1031.63 1031.79 1031.91 1031.74 1031.74 1031.91 1032.08 1031.96 1031.93 1031.93 1031.60 1031.37 1031.18 1030.96 1030.74 1030.67 1030.39 1030.25 1030.11 1029.92 1029.62
1027.33 1027.31 1027.50 1027.66 1027.78 1028.18 1029.07 1029.84 1029.94 1029.46 1029.42 1030.03 1031.03 1030.84 1030.54 1030.41 1030.29 1030.51 1030.63 1030.84 1031.17 1031.22 1031.64 1031.94 1031.86 1031.57 1031.43 1031.77 1031.69 1031.65 1031.54 1031.43 1031.33 1031.18 1031.04 1031.00 1031.05 1031.13 1030.93 1030.73 1030.62 1030.43 1030.26 1030.03
1027.66 1027.74 1027.88 1028.06 1028.36 1028.97 1029.54 1029.97 1029.73 1029.68 1029.85 1030.36 1031.24 1031.36 1031.05 1030.95 1031.02 1031.24 1031.45 1031.22 1031.31 1031.78 1032.13 1032.32 1032.05 1031.97 1031.87 1031.58 1031.33 1031.33 1031.20 1031.07 1030.90 1030.86 1030.94 1030.89 1030.89 1030.82 1030.84 1030.84 1030.65 1030.52 1030.45 1030.40
1027.96 1028.06 1028.11 1028.52 1029.10 1030.01 1030.28 1030.04 1030.00 1030.05 1030.47 1030.81 1031.30 1031.45 1031.45 1031.32 1031.64 1031.78 1031.70 1031.71 1031.71 1032.19 1032.03 1032.20 1032.31 1031.71 1031.32 1030.89 1030.87 1030.78 1030.66 1030.62 1030.49 1030.48 1030.37 1030.32 1030.32 1030.50 1030.59 1030.54 1030.53 1030.49 1030.50 1030.52
1028.24 1028.54 1028.90 1029.91 1030.38 1030.14 1030.08 1030.31 1030.43 1030.69 1031.31 1031.00 1031.21 1031.83 1031.66 1031.78 1031.73 1031.98 1032.13 1032.03 1032.23 1032.07 1032.31 1032.19 1031.77 1030.98 1030.57 1030.37 1030.39 1030.34 1030.28 1030.32 1030.46 1030.42 1030.31 1030.27 1030.24 1030.31 1030.43 1030.54 1030.72 1030.83 1030.75 1030.70
1028.68 1029.55 1030.19 1030.38 1030.22 1030.40 1030.92 1031.52 1031.72 1032.03 1031.79 1031.42 1031.42 1031.40 1031.55 1031.76 1031.83 1031.96 1032.57 1032.34 1032.26 1032.12 1032.16 1031.72 1031.25 1030.36 1029.82 1029.73 1030.01 1030.13 1030.22 1030.28 1030.26 1030.25 1030.26 1030.32 1030.39 1030.41 1030.40 1030.32 1030.35 1030.37 1030.62 1030.88
1028.69 1029.17 1030.14 1030.42 1030.86 1031.25 1031.52 1032.29 1032.26 1031.96 1031.30 1031.31 1031.30 1031.45 1031.46 1031.91 1031.88 1031.90 1032.58 1032.16 1032.18 1031.90 1031.95 1031.50 1030.66 1029.39 1029.02 1029.25 1029.45 1029.70 1029.96 1030.07 1030.10 1030.04 1030.00 1030.16 1030.25 1030.31 1030.39 1030.36 1030.26 1030.27 1030.44 1030.64
1028.72 1029.37 1030.46 1030.70 1031.58 1031.54 1031.39 1031.61 1031.46 1031.19 1030.80 1030.95 1031.09 1031.54 1031.64 1032.01 1031.94 1032.17 1032.23 1032.06 1032.02 1031.97 1031.53 1030.71 1029.40 1028.71 1028.65 1028.83 1029.04 1029.35 1029.59 1029.75 1029.85 1029.84 1029.79 1029.93 1030.13 1030.33 1030.36 1030.41 1030.42 1030.42 1030.52 1030.82
1029.11 1029.71 1030.58 1030.76 1031.03 1030.26 1029.80 1029.84 1029.80 1029.86 1030.02 1030.41 1030.57 1031.18 1031.42 1031.82 1031.87 1032.01 1032.07 1032.04 1031.88 1031.57 1031.03 1029.44 1028.29 1027.98 1028.08 1028.38 1028.77 1029.09 1029.16 1029.35 1029.46 1029.53 1029.58 1029.72 1029.91 1030.08 1030.25 1030.36 1030.41 1030.49 1030.55 1030.92
1029.27 1029.48 1029.67 1029.85 1029.43 1029.34 1029.28 1029.40 1029.65 1029.84 1029.91 1030.18 1030.63 1031.02 1031.08 1031.56 1031.79 1031.81 1031.83 1031.86 1031.29 1030.46 1029.13 1028.13 1027.41 1027.52 1027.89 1028.21 1028.56 1028.73 1028.96 1029.11 1029.23 1029.28 1029.35 1029.44 1029.57 1029.78 1029.85 1030.00 1030.19 1030.33 1030.55 1030.85
1029.19 1029.20 1029.19 1029.23 1029.34 1029.35 1029.39 1029.30 1029.35 1029.58 1029.78 1030.01 1030.14 1030.78 1031.07 1031.03 1031.07 1031.35 1031.01 1030.73 1029.61 1028.35 1027.98 1027.48 1027.48 1027.52 1027.62 1027.87 1028.18 1028.34 1028.51 1028.71 1028.83 1028.99 1029.15 1029.24 1029.28 1029.37 1029.49 1029.68 1029.86 1030.02 1030.34 1030.70
1028.90 1028.60 1028.45 1028.53 1028.56 1028.58 1028.63 1028.72 1028.92 1029.21 1029.40 1029.61 1029.90 1030.37 1030.46 1030.81 1030.53 1030.27 1029.91 1029.02 1027.89 1027.47 1027.29 1027.35 1027.39 1027.34 1027.37 1027.65 1027.86 1028.07 1028.27 1028.44 1028.56 1028.74 1028.84 1028.87 1028.97 1029.13 1029.24 1029.21 1029.20 1029.55 1029.81 1030.04
Wind_Speed
13 13 11 10 4 2 9 3 4 5 5 7 3 3 2 2 4 2 1 0 1 4 5 5 4 5 6 13 12 12 3 5 7 5 17 10 6 6 10 6 7 2 3 6
13 12 11 8 3 4 4 3 1 4 3 5 2 2 2 1 4 4 4 2 1 2 5 5 4 6 7 10 11 10 10 7 5 5 10 16 11 13 3 9 8 4 1 4
13 13 11 6 5 7 7 4 4 5 7 2 3 2 4 3 4 1 3 2 1 4 3 3 5 5 5 9 8 13 10 15 19 14 9 9 16 30 27 10 7 6 8 14
15 13 10 5 6 7 7 4 2 1 3 6 6 2 2 4 5 3 6 1 5 4 3 5 9 9 10 6 12 5 3 3 14 20 14 21 28 30 29 29 15 11 13 10
15 14 11 5 5 9 7 5 5 3 3 2 3 7 5 5 4 2 4 6 11 2 3 2 5 8 12 7 13 8 4 3 2 6 6 14 29 25 27 25 23 16 12 9
15 15 14 10 5 8 4 1 2 4 5 3 2 3 3 4 4 4 6 6 4 4 1 8 8 5 1 5 9 7 5 4 4 3 12 8 24 26 16 21 21 15 16 19
16 16 17 15 15 9 5 2 3 5 4 2 3 4 2 4 4 3 5 4 2 3 7 2 3 3 6 6 14 13 5 2 3 4 7 13 6 15 9 10 20 22 18 19
15 16 16 18 20 15 5 2 4 4 3 1 4 9 6 5 4 1 3 3 4 8 1 2 4 4 4 6 12 19 13 2 6 4 11 4 19 24 11 5 18 21 19 21
14 15 14 14 11 8 6 3 1 5 5 6 4 3 5 4 6 5 3 3 6 1 3 4 5 6 5 8 15 15 17 18 6 7 9 12 14 25 23 7 14 23 21 20
14 14 13 13 13 15 6 3 2 5 5 2 1 6 4 3 2 2 4 8 10 6 4 6 6 6 4 7 8 8 9 6 15 12 8 6 12 18 17 19 9 20 18 17
14 14 13 12 12 10 5 1 5 4 4 1 2 3 4 4 3 4 4 0 4 4 6 4 3 5 5 3 5 5 8 5 6 6 6 8 12 10 11 6 9 14 15 15
13 14 12 13 10 10 5 4 2 2 5 1 1 1 2 1 2 1 5 3 0 1 4 3 3 6 5 5 5 10 9 7 4 5 5 2 6 3 5 5 7 13 15 17
12 13 12 11 14 15 9 3 3 3 4 5 6 6 5 5 2 2 3 3 2 3 1 3 3 8 1 4 6 5 7 6 3 2 3 4 5 7 8 9 11 12 14 15
11 13 13 14 15 13 8 5 2 4 3 4 3 3 5 7 6 8 4 4 3 4 2 4 4 4 4 5 4 4 2 4 4 5 3 2 4 6 7 10 12 14 15 16
9 10 10 14 17 18 10 4 3 2 4 4 1 3 4 5 6 12 11 8 6 4 5 5 4 2 2 2 1 6 4 3 3 4 3 3 6 8 6 8 10 12 15 17
9 9 7 8 8 5 4 5 3 4 2 5 3 2 5 6 6 11 9 6 4 3 3 2 2 1 0 3 4 3 2 2 4 3 2 3 7 4 7 7 9 10 12 13
9 11 8 7 7 4 4 4 2 6 1 4 2 2 3 4 4 3 3 3 3 3 2 3 2 4 3 2 2 2 3 2 1 2 2 2 2 4 6 3 4 6 8 10
8 11 13 16 16 11 4 3 7 2 5 3 3 0 1 5 2 2 3 2 2 5 2 1 1 1 1 1 2 2 2 1 2 3 1 2 3 2 5 2 3 5 7 8
8 7 7 4 6 4 1 6 4 2 3 4 2 4 3 2 1 1 1 2 2 1 2 1 1 1 2 5 5 3 3 2 2 2 5 6 5 5 5 5 7 5 6 7
6 5 5 4 1 4 3 7 5 6 5 3 2 1 1 1 1 2 1 2 1 1 1 1 1 2 2 5 7 5 5 4 3 2 3 4 5 5 6 5 3 2 3 4
4 3 2 2 4 3 4 3 3 2 2 0 2 2 3 1 1 2 1 1 1 0 1 2 1 2 5 8 9 8 7 6 6 3 1 2 3 4 4 6 6 5 1 2
4 5 3 2 4 3 5 1 1 2 3 3 3 2 2 2 0 2 1 1 0 2 1 0 2 4 5 9 10 8 8 7 6 4 4 3 0 2 2 3 4 5 2 2
3 5 3 2 2 4 5 5 2 2 4 4 4 3 1 2 2 3 1 1 2 1 1 3 5 2 4 8 7 6 6 6 5 4 3 3 1 0 1 3 2 3 1 2
3 4 1 4 2 5 4 3 3 2 3 5 3 3 2 1 2 1 2 1 0 1 3 6 3 7 6 7 6 5 6 8 7 6 5 4 3 2 2 3 3 1 0 3
3 3 5 5 2 0 2 2 1 2 4 4 4 3 1 2 3 0 2 1 4 5 5 3 3 6 6 6 6 8 6 6 6 5 5 5 4 3 4 3 2 1 3 4
2 2 2 1 1 2 2 3 2 4 4 2 2 3 2 2 3 3 6 4 7 4 4 3 2 4 6 6 6 7 6 6 7 5 5 4 5 5 4 3 4 2 4 4
3 3 2 2 1 3 3 4 3 5 4 3 3 4 4 3 3 4 5 6 3 3 3 3 4 5 6 6 5 5 6 7 7 5 6 6 4 4 4 6 4 5 5 5
Wind_Direction
359 354 352 349 355 91 55 82 48 320 352 57 36 61 64 317 350 28 37 31 280 272 296 288 298 289 301 334 329 309 254 280 302 349 37 28 65 171 181 203 245 301 6 105
359 353 351 352 26 120 114 75 341 333 33 87 52 64 48 50 6 344 4 340 212 318 303 306 310 306 294 323 346 333 341 326 322 11 16 16 40 25 222 267 265 250 208 91
4 5 356 9 115 116 86 87 46 350 43 38 86 84 22 8 336 350 12 271 23 324 295 233 300 302 314 328 341 7 349 76 67 62 48 45 56 43 44 49 39 344 47 329
13 13 15 87 90 110 92 37 87 218 23 34 54 70 15 7 4 14 1 30 12 281 295 340 15 355 342 356 353 17 51 70 88 105 73 62 66 50 38 45 35 36 348 349
18 23 26 68 109 92 79 119 135 57 79 20 34 15 18 359 335 287 338 339 335 268 268 34 313 353 19 28 327 353 4 353 182 5 319 44 52 40 51 35 25 20 21 358
20 26 32 40 119 85 97 141 74 99 8 15 62 4 305 293 328 230 249 305 312 282 264 296 280 268 303 290 336 332 317 340 352 2 347 356 30 15 28 30 13 359 14 340
28 31 38 47 63 92 111 156 112 89 63 67 64 343 310 290 304 256 303 313 238 273 336 189 157 157 242 360 21 23 332 18 16 335 332 51 9 353 359 37 7 0 359 351
32 38 42 50 58 62 87 121 97 100 82 302 30 4 1 315 331 284 256 308 290 322 10 53 46 6 11 358 0 12 21 26 59 54 57 101 356 1 343 19 11 352 352 350
41 40 47 55 67 79 81 60 37 88 111 9 282 348 352 344 349 353 296 326 316 73 54 49 50 39 357 359 349 2 28 41 58 37 67 33 347 338 329 165 19 351 348 349
48 44 44 52 60 68 93 62 8 85 103 336 311 34 341 325 345 256 310 341 354 20 44 47 46 45 347 18 8 342 354 2 40 42 72 53 330 345 4 47 319 330 342 348
48 43 42 46 51 64 67 95 6 98 97 348 6 37 18 341 26 11 323 286 16 28 59 62 37 42 37 44 29 354 17 15 19 31 60 42 349 340 30 327 314 334 345 353
47 42 40 42 48 52 86 70 5 9 78 162 296 64 100 319 298 252 20 98 176 96 106 71 93 59 41 28 47 2 49 30 45 45 83 323 309 312 308 335 330 347 358 1
55 49 50 56 58 58 82 96 353 53 66 44 36 359 341 36 355 225 61 38 92 68 31 115 105 79 107 46 41 78 56 46 63 126 15 323 325 335 356 4 2 359 4 10
61 63 65 68 66 60 76 69 342 69 101 95 353 333 21 332 17 50 52 120 92 113 85 65 72 92 25 63 82 57 352 346 53 78 35 305 16 1 344 358 8 8 15 18
66 66 75 71 74 72 71 78 26 62 122 144 152 309 12 352 39 49 43 47 45 25 46 52 60 66 110 91 129 47 352 30 67 72 272 257 304 324 337 3 8 12 9 12
71 67 75 82 67 77 64 40 17 11 53 91 68 303 355 348 28 43 33 31 53 63 55 66 67 30 233 83 81 350 313 241 236 351 335 288 316 317 0 352 356 20 15 11
79 75 97 88 72 68 89 155 273 341 3 81 67 26 8 346 23 42 30 37 60 47 68 45 44 21 31 60 81 314 343 18 54 299 326 7 32 354 345 340 354 15 22 14
98 92 86 88 91 103 39 348 12 28 88 74 112 105 33 7 32 18 359 21 42 29 103 120 67 58 35 111 247 264 255 342 12 32 241 292 298 3 26 21 356 29 29 23
109 97 98 69 38 54 270 333 11 22 99 120 100 146 202 5 67 326 28 359 60 345 78 75 236 157 191 175 191 211 215 225 251 325 329 358 2 356 10 6 7 17 16 17
90 46 52 22 315 279 341 7 23 16 345 29 102 103 127 359 34 79 310 15 58 86 54 170 262 238 255 199 193 191 191 198 162 231 312 335 336 347 343 340 2 38 8 357
50 64 91 213 321 55 36 45 72 321 23 245 108 165 132 54 115 132 24 135 41 101 108 301 263 242 209 193 204 212 213 210 221 240 241 256 261 300 319 336 348 350 62 68
167 122 99 64 42 44 84 332 315 223 226 169 149 148 123 115 62 103 145 94 156 235 1 344 247 240 195 183 203 208 208 214 221 231 208 187 274 332 308 316 334 349 34 70
59 58 64 50 323 62 164 199 224 239 173 178 163 119 87 126 77 75 142 126 242 161 24 244 233 217 191 192 199 208 206 212 217 225 210 199 213 44 275 323 317 329 1 97
92 124 220 176 208 233 188 182 175 180 139 147 130 104 113 103 109 132 134 117 183 313 238 234 219 206 195 184 187 174 201 205 216 222 212 222 243 277 268 275 313 260 6 130
121 122 200 204 235 226 152 158 156 159 139 133 114 79 105 101 109 246 120 129 245 229 234 238 214 188 182 183 184 199 207 206 213 215 216 228 229 246 275 270 283 220 160 169
136 196 164 142 139 218 197 175 173 157 143 119 72 118 114 171 146 172 207 193 224 237 219 231 189 186 193 196 194 204 205 208 211 213 224 235 225 228 247 248 247 217 187 185
199 226 189 180 167 200 189 164 178 149 136 166 136 157 191 112 172 218 193 218 232 231 222 216 218 215 209 198 199 198 201 205 213 221 226 235 233 225 232 254 250 218 211 205